Location: Newark
(45.6000°N, 12.8833°E)
Time: 02:09:22
(UTC+00:00)

Vanguard 3 - Visible Passes

Search period start: 22 November 2019 00:00
Search period end: 02 December 2019 00:00
Orbit: 507 x 3263 km, 33.4° (Epoch: 21 November)

Date Brightness Start Highest point End Pass type
(mag) Time Alt. Az. Time Alt. Az. Time Alt. Az.
22 Nov 10.6 17:37:16 10° W 17:51:34 31° SW 18:01:33 10° SSE visible
23 Nov 10.7 16:19:25 10° W 16:36:41 43° SSW 16:49:00 10° SE visible
23 Nov 10.8 18:38:59 10° W 18:48:27 18° SW 18:55:49 10° S visible
24 Nov 10.8 17:19:44 10° W 17:34:17 30° SW 17:44:55 10° SSE visible
25 Nov 10.9 16:01:54 10° W 16:19:17 41° SSW 16:32:23 10° SE visible
25 Nov 11.1 18:21:54 10° W 18:31:10 17° SW 18:38:40 10° SSW visible
26 Nov 11.0 17:02:20 10° W 17:16:53 28° SW 17:28:04 10° SSE visible
27 Nov 11.1 15:44:30 10° W 16:01:47 40° SSW 16:15:34 10° SSE visible
27 Nov 11.3 18:05:03 10° W 18:13:47 16° SW 18:21:11 10° SSW visible
28 Nov 11.2 16:45:03 10° W 16:59:24 27° SW 17:11:00 10° S visible
29 Nov 11.5 17:48:33 10° WSW 17:56:21 14° SW 18:03:14 10° SSW visible
30 Nov 11.4 16:27:58 10° W 16:41:50 25° SW 16:53:40 10° S visible
01 Dec 11.7 17:32:42 10° WSW 17:38:50 12° SW 17:44:30 10° SSW visible
